Weather past 2 weeks in Adamstown, Pitcairn Islands

Now
68 °F

Mild.


Feels Like: 68 °F
Forecast: 71 / 73 °F
Wind: 6 mph from Southwest

Location: Rikitea

Current Time: Jul 30, 2014 at 5:59:52 AM

Latest Report: Jul 30, 2014 at 5:00 AM


Visibility: N/A

Pressure: 30.03 "Hg

Humidity: 78%

Dew point: 61 °F

Location of AdamstownLocation

Historic Weather in Adamstown — Graph

°F

Adamstown temperature yesterday

Maximum temperature yesterday: 73 °F (at 12:00 PM)
Minimum temperature yesterday: 68 °F (at 11:00 PM)
Average temperature yesterday: 70 °F

Past Weeks' High & Low Weather Summary

 TemperatureHumidityPressure
High78 °F (Jul 28, 1:00 PM)96% (Jul 18, 8:00 PM)30.14 "Hg (Jul 18, 8:00 PM)
Low65 °F (Jul 21, 6:00 AM)59% (Jul 16, 12:00 PM)29.89 "Hg (Jul 20, 5:00 AM)
Average71 °F80%30.04 "Hg
* Reported Jul 15 4:00 AM — Jul 30 4:00 AM, Adamstown, Weather by CustomWeather, © 2014

Note: Actual official high and low records may vary slightly from our data, if they occured in-between our weather recording intervals... More about our weather records

Advertising

Adamstown weather history for previous 24 hours

 ConditionsComfort  
Time TempWeatherWind HumidityBarometerVisibility
4:00 AM
Jul 30
68 °FMild.7 mph82%30.04 "HgN/A
3:00 AM69 °FMild.6 mph80%30.04 "HgN/A
2:00 AM68 °FMild.7 mph79%30.05 "HgN/A
1:00 AM67 °FMild.6 mph80%30.05 "HgN/A
12:00 AM68 °FMild.6 mph79%30.05 "HgN/A
11:00 PM
Jul 29
68 °FMild.8 mph80%30.06 "HgN/A
10:00 PM68 °FMild.8 mph77%30.06 "HgN/A
9:00 PM69 °FMild.8 mph81%30.05 "HgN/A
8:00 PM69 °FMild.8 mph84%30.04 "HgN/A
7:00 PM68 °FMild.7 mph89%30.03 "HgN/A
6:00 PM69 °FLight rain. Overcast.7 mph91%30.03 "Hg12 mi
5:00 PM71 °FOvercast.8 mph88%30.01 "Hg12 mi
4:00 PM71 °FOvercast.3 mph90%30.00 "Hg19 mi
3:00 PM71 °FOvercast.6 mph90%30.01 "Hg19 mi
2:00 PM70 °FLight rain. Low clouds.5 mph91%30.03 "Hg3 mi
1:00 PM73 °FPartly sunny.1 mph82%30.05 "Hg7 mi
12:00 PM73 °FPartly sunny.3 mph82%30.07 "Hg19 mi
11:00 AM71 °FOvercast.5 mph86%30.08 "Hg19 mi
10:00 AM69 °FLight rain. Low clouds.7 mph90%30.09 "Hg3 mi
9:00 AM71 °FLight rain. Low clouds.5 mph87%30.08 "Hg12 mi
8:00 AM69 °FLow clouds.7 mph92%30.06 "Hg12 mi
7:00 AM71 °FLow clouds.3 mph86%30.06 "Hg4 mi
6:00 AM70 °FMild.No wind89%30.04 "HgN/A
5:00 AM70 °FMild.7 mph89%30.02 "HgN/A
Weather by CustomWeather, © 2014

See weather overviewHow to use our weather pages